M I D A S
Marine Information and Data Acquisition System
Tripno 717 of the Zeeleeuw from 2004-05-14 06:12:26 to 2004-05-14 14:22:56
Back to CruiseResearch ActivitiesStationsMapUnderway DataData graphs

EquipmentUnitsComments
TimeDGPSUTC
LatitudeDGPSDM.mWGS84
LongitudeDGPSDM.mWGS84
SpeedMeteo Stationm/sRelative wind speed
DirectionMeteo StationdegRelative wind direction
TemperatureMeteo Stationdeg CelciusAir temperature
PressureMeteo StationPaAtmospheric pressure
HumidityMeteo Station%Relative humidity
Missing or incorrect values are displayed as -999
Metereological data collected by the RV Zeeleeuw from 2004-05-14 06:12:26 to 2004-05-14 14:22:56
Time Latitude Longitude Speed Direction Temperature Pressure Humidity
2004-05-14 06:13 51°13.678 2°55.746 1 98 7.6 102410 81
2004-05-14 06:14 51°13.736 2°55.731 2.4 346 7.6 102410 82
2004-05-14 06:15 51°13.824 2°55.648 1.8 359 7.7 102410 81
2004-05-14 06:16 51°13.934 2°55.564 2.2 17 7.8 102410 81
2004-05-14 06:17 51°14.053 2°55.474 3 359 7.9 102400 81
2004-05-14 06:18 51°14.196 2°55.356 3.2 7 8 102400 80
2004-05-14 06:19 51°14.327 2°55.158 4.4 360 8.1 102400 80
2004-05-14 06:20 51°14.477 2°54.927 6.8 6 8.3 102400 80
2004-05-14 06:21 51°14.664 2°54.722 5.9 355 8.6 102400 80
2004-05-14 06:22 51°14.847 2°54.524 6 347 8.7 102400 79
2004-05-14 06:23 51°15.03 2°54.324 6.9 354 8.8 102400 79
2004-05-14 06:24 51°15.211 2°54.125 6.8 359 8.8 102400 79
2004-05-14 06:25 51°15.401 2°53.918 7.8 8 9 102390 79
2004-05-14 06:26 51°15.59 2°53.711 8.8 9 9.2 102390 77
2004-05-14 06:27 51°15.77 2°53.508 8.9 10 9.4 102400 75
2004-05-14 06:28 51°15.965 2°53.323 8 6 9.5 102400 74
2004-05-14 06:29 51°16.171 2°53.196 8.5 5 9.6 102390 74
2004-05-14 06:30 51°16.38 2°53.049 9 7 9.7 102390 73
2004-05-14 06:31 51°16.584 2°52.903 8.5   9.7 102390 73
2004-05-14 06:32 51°16.776 2°52.759 8.5 5 9.8 102380 73
2004-05-14 06:33 51°16.985 2°52.644 8.5 7 9.8 102390 73
2004-05-14 06:34 51°17.196 2°52.535 8 4 9.8 102400 72
2004-05-14 06:35 51°17.408 2°52.465 7.7 4 9.8 102390 72
2004-05-14 06:36 51°17.621 2°52.396 7.9 3 9.8 102390 72
2004-05-14 06:37 51°17.835 2°52.331 8 6 9.8 102400 72
2004-05-14 06:38 51°18.047 2°52.359 8.2 356 9.8 102400 72
2004-05-14 06:39 51°18.262 2°52.448 8.2 5 9.8 102400 72
2004-05-14 06:40 51°18.474 2°52.531 8.1 359 9.8 102400 71
2004-05-14 06:41 51°18.68 2°52.608 8.5 2 9.8 102390 71
2004-05-14 06:42 51°18.901 2°52.689 7.3 4 9.8 102390 72
2004-05-14 06:43 51°19.112 2°52.765 7.5 3 9.8 102390 71
2004-05-14 06:44 51°19.328 2°52.841 8.4 6 9.8 102380 71
2004-05-14 06:45 51°19.548 2°52.918 8.3 357 9.8 102390 71
2004-05-14 06:46 51°19.758 2°53.01 8 4 9.8 102390 72
2004-05-14 06:47 51°19.969 2°53.12 7.9 360 9.8 102390 71
2004-05-14 06:48 51°20.185 2°53.231 8.7 2 9.8 102390 71
2004-05-14 06:49 51°20.398 2°53.34 8.1 4 9.8 102400 71
2004-05-14 06:50 51°20.604 2°53.447 8.6 8 9.8 102390 71
2004-05-14 06:51 51°20.824 2°53.565 8.5 6 9.8 102390 71
2004-05-14 06:52 51°21.035 2°53.679 7.5 359 9.8 102390 71
2004-05-14 06:53 51°21.245 2°53.792 7.7 1 9.9 102400 71
2004-05-14 06:54 51°21.463 2°53.909 8.9 3 9.8 102390 71
2004-05-14 06:55 51°21.677 2°54.024 8.2 3 9.8 102390 71
2004-05-14 06:56 51°21.901 2°54.144 8.2 360 9.8 102400 70
2004-05-14 06:57 51°22.12 2°54.26 8.3 3 9.8 102400 71
2004-05-14 06:58 51°22.334 2°54.377 7.8 4 9.8 102400 70
2004-05-14 06:59 51°22.55 2°54.494 8.3 358 9.8 102390 71
2004-05-14 07:00 51°22.758 2°54.605 8.2 4 9.8 102390 70
2004-05-14 07:01 51°22.969 2°54.718 8 2 9.8 102390 70
2004-05-14 07:02 51°23.173 2°54.858 7.5 6 9.8 102390 70
2004-05-14 07:03 51°23.376 2°55.011 7.1 1 9.8 102390 70
2004-05-14 07:04 51°23.579 2°55.164 7.7 4 9.8 102390 71
2004-05-14 07:05 51°23.787 2°55.319 7.7 1 9.8 102390 71
2004-05-14 07:06 51°23.988 2°55.471 7.9 359 9.8 102390 71
2004-05-14 07:07 51°24.195 2°55.624 7.2 4 9.8 102400 71
2004-05-14 07:08 51°24.402 2°55.777 7.8 1 9.8 102400 71
2004-05-14 07:09 51°24.614 2°55.934 8.9 1 9.8 102400 71
2004-05-14 07:10 51°24.82 2°56.094 7.9 2 9.9 102390 71
2004-05-14 07:11 51°25.027 2°56.254 8.3 6 9.8 102400 71
2004-05-14 07:12 51°25.231 2°56.41 7.4 3 9.8 102400 71
2004-05-14 07:13 51°25.433 2°56.563 9.1 9 9.8 102400 71
2004-05-14 07:14 51°25.635 2°56.721 8.2 3 9.8 102390 71
2004-05-14 07:15 51°25.834 2°56.875 8.2 7 9.8 102390 71
2004-05-14 07:16 51°26.029 2°57.029 8.2 360 9.8 102400 71
2004-05-14 07:17 51°26.206 2°57.258 7.7 8 9.8 102400 71
2004-05-14 07:18 51°26.368 2°57.507 8 3 9.8 102400 71
2004-05-14 07:19 51°26.53 2°57.75 7.6 4 9.8 102400 71
2004-05-14 07:20 51°26.695 2°57.995 7.7 359 9.8 102410 71
2004-05-14 07:21 51°26.863 2°58.243 8.1 1 9.8 102400 71
2004-05-14 07:22 51°27.026 2°58.483 7.9 359 9.8 102410 71
2004-05-14 07:23 51°27.192 2°58.723 8.1 359 9.9 102390 72
2004-05-14 07:24 51°27.362 2°58.969 7.3 359 9.9 102410 71
2004-05-14 07:25 51°27.531 2°59.21 8.5 356 9.8 102410 71
2004-05-14 07:26 51°27.696 2°59.45 7.9 352 9.9 102410 72
2004-05-14 07:27 51°27.865 2°59.694 7.6 359 9.9 102400 72
2004-05-14 07:28 51°28.036 2°59.943 9.1   9.9 102400 72
2004-05-14 07:29 51°28.204 3°0.185 8.1 354 9.9 102410 72
2004-05-14 07:30 51°28.374 3°0.43 8.5 358 9.9 102420 72
2004-05-14 07:31 51°28.547 3°0.682 8.1 1 9.9 102420 72
2004-05-14 07:32 51°28.718 3°0.929 8.6 360 9.9 102410 72
2004-05-14 07:33 51°28.886 3°1.175 7.8 357 9.9 102410 72
2004-05-14 07:34 51°29.042 3°1.448 7.9 1 9.9 102410 71
2004-05-14 07:35 51°29.185 3°1.741 8.2 357 9.9 102410 70
2004-05-14 07:36 51°29.324 3°2.041 7.9   9.9 102410 70
2004-05-14 07:37 51°29.432 3°2.381 8.5 359 9.9 102410 70
2004-05-14 07:38 51°29.535 3°2.711 8.7 1 9.9 102410 69
2004-05-14 07:39 51°29.644 3°3.049 8.6 1 9.9 102420 70
2004-05-14 07:40 51°29.753 3°3.378 8.1 4 9.9 102410 70
2004-05-14 07:41 51°29.86 3°3.702 8.9 360 9.9 102420 70
2004-05-14 07:42 51°29.969 3°4.034 8.6 355 9.9 102410 69
2004-05-14 07:43 51°30.077 3°4.363 7.6 354 9.9 102410 69
2004-05-14 07:44 51°30.183 3°4.687 8.1 4 10 102420 68
2004-05-14 07:45 51°30.294 3°5.028 8.1 2 10 102410 68
2004-05-14 07:46 51°30.402 3°5.352 8.6 6 10 102420 67
2004-05-14 07:47 51°30.512 3°5.688 8.4 4 10 102420 67
2004-05-14 07:48 51°30.62 3°6.018 8.2 5 10 102420 67
2004-05-14 07:49 51°30.727 3°6.344 8 5 9.9 102420 67
2004-05-14 07:50 51°30.838 3°6.679 8.5 4 10 102420 67
2004-05-14 07:51 51°30.949 3°7.009 8 10 9.9 102420 67
2004-05-14 07:52 51°31.058 3°7.337 8.2 6 9.9 102420 67
2004-05-14 07:53 51°31.168 3°7.662 7.1 4 9.9 102420 67
2004-05-14 07:54 51°31.274 3°8.005 7.2 9 9.9 102430 67
2004-05-14 07:55 51°31.372 3°8.343 7.8 7 9.9 102420 68
2004-05-14 07:56 51°31.473 3°8.693 7 7 10 102420 68
2004-05-14 07:57 51°31.575 3°9.039 8 2 10 102430 68
2004-05-14 07:58 51°31.675 3°9.384 7.7 4 10 102430 68
2004-05-14 07:59 51°31.776 3°9.726 7.9 10 10 102430 68
2004-05-14 08:00 51°31.877 3°10.069 7.7 6 10 102420 67
2004-05-14 08:01 51°31.977 3°10.414 7.6 9 10 102440 67
2004-05-14 08:02 51°32.078 3°10.758 6.6 10 10 102420 67
2004-05-14 08:03 51°32.177 3°11.097 6.5 9 10 102430 67
2004-05-14 08:04 51°32.277 3°11.444 7.7 12 10.1 102440 67
2004-05-14 08:05 51°32.378 3°11.79 6.7 11 10.1 102420 67
2004-05-14 08:06 51°32.478 3°12.134 7.2 5 10.1 102430 66
2004-05-14 08:07 51°32.582 3°12.486 7.8 7 10.1 102420 66
2004-05-14 08:08 51°32.683 3°12.833 6.5 4 10.1 102430 66
2004-05-14 08:09 51°32.785 3°13.172 7.6 11 10.1 102430 66
2004-05-14 08:10 51°32.895 3°13.514 7.6 9 10.1 102420 66
2004-05-14 08:11 51°33.02 3°13.902 7.6 8 10.1 102430 66
2004-05-14 08:12 51°33.134 3°14.253 7.3 15 10.1 102430 66
2004-05-14 08:13 51°33.242 3°14.593 8 11 10 102420 66
2004-05-14 08:14 51°33.35 3°14.933 7.1 13 10.1 102430 66
2004-05-14 08:15 51°33.461 3°15.283 6.4 12 10.1 102420 66
2004-05-14 08:16 51°33.57 3°15.628 7.2 9 10.1 102430 66
2004-05-14 08:17 51°33.679 3°15.972 6.9 10 10.1 102420 66
2004-05-14 08:18 51°33.786 3°16.314 6.4 13 10.1 102420 66
2004-05-14 08:19 51°33.887 3°16.661 7.4 5 10.1 102420 67
2004-05-14 08:20 51°33.983 3°17.02 6.6 13 10.1 102410 66
2004-05-14 08:21 51°34.077 3°17.378 6.7 14 10.1 102430 66
2004-05-14 08:22 51°34.173 3°17.734 7 15 10.1 102420 66
2004-05-14 08:23 51°34.269 3°18.083 6.3 16 10.1 102430 66
2004-05-14 08:24 51°34.375 3°18.425 7.5 10 10.1 102430 66
2004-05-14 08:25 51°34.483 3°18.778 7 14 10.1 102430 66
2004-05-14 08:26 51°34.59 3°19.125 7.3 4 10.1 102430 65
2004-05-14 08:27 51°34.696 3°19.469 7.4 4 10.1 102430 65
2004-05-14 08:28 51°34.803 3°19.812 6.7 14 10.1 102420 66
2004-05-14 08:29 51°34.909 3°20.156 7.7 6 10.1 102430 66
2004-05-14 08:30 51°35.015 3°20.502 7 12 10.1 102430 66
2004-05-14 08:31 51°35.121 3°20.851 6.9 9 10.1 102430 66
2004-05-14 08:32 51°35.228 3°21.208 7.2 2 10.1 102420 66
2004-05-14 08:33 51°35.334 3°21.562 6.3 4 10.1 102430 66
2004-05-14 08:34 51°35.44 3°21.918 7.3 9 10.1 102430 66
2004-05-14 08:35 51°35.546 3°22.273 7.8 5 10.1 102440 66
2004-05-14 08:36 51°35.653 3°22.629 7.5 5 10.1 102430 67
2004-05-14 08:37 51°35.757 3°22.978 6.8 7 10.1 102440 67
2004-05-14 08:38 51°35.847 3°23.343 7.1 3 10.1 102440 66
2004-05-14 08:39 51°35.941 3°23.71 7.1 2 10.1 102430 67
2004-05-14 08:40 51°35.995 3°23.969 3.2 5 10.1 102440 67
2004-05-14 08:41 51°36.036 3°24.092 2 4 10.3 102450 66
2004-05-14 08:42 51°36.071 3°24.176 1.6 3 10.5 102450 66
2004-05-14 08:43 51°36.1 3°24.248 1.5 4 10.6 102450 65
2004-05-14 08:44 51°36.125 3°24.312 1.2 352 10.8 102450 65
2004-05-14 08:45 51°36.145 3°24.37 1.1 356 10.9 102460 64
2004-05-14 08:46 51°36.162 3°24.426 1 356 11 102460 63
2004-05-14 08:47 51°36.176 3°24.481 1 339 11.1 102460 63
2004-05-14 08:48 51°36.187 3°24.534 0.6 317 11.2 102460 63
2004-05-14 08:49 51°36.196 3°24.591 0.4 318 11.3 102460 62
2004-05-14 08:50 51°36.204 3°24.644 1.3 43 11.5 102460 62
2004-05-14 08:51 51°36.208 3°24.698 0.9 308 11.6 102460 61
2004-05-14 08:52 51°36.212 3°24.754 0.8 306 11.6 102470 61
2004-05-14 08:53 51°36.225 3°24.844 1.8 355 11.7 102460 60
2004-05-14 08:54 51°36.252 3°24.95 1.7 345 11.7 102460 60
2004-05-14 08:55 51°36.275 3°25.054 1.7 330 11.6 102460 60
2004-05-14 08:56 51°36.288 3°25.157 1.4 2 11.5 102460 61
2004-05-14 08:57 51°36.297 3°25.266 1.5 354 11.6 102460 61
2004-05-14 08:58 51°36.307 3°25.366 1.4 9 11.6 102460 61
2004-05-14 08:59 51°36.319 3°25.464 1.3 344 11.7 102460 60
2004-05-14 09:00 51°36.332 3°25.566 1 347 11.7 102460 60
2004-05-14 09:01 51°36.345 3°25.662 0.9 349 11.7 102460 60
2004-05-14 09:02 51°36.359 3°25.756 0.4 321 11.8 102460 60
2004-05-14 09:03 51°36.372 3°25.854 0.3 324 11.9 102470 60
2004-05-14 09:04 51°36.385 3°25.953 0.9 360 12.1 102460 59
2004-05-14 09:05 51°36.399 3°26.049 0.9 26 12.2 102470 63
2004-05-14 09:06 51°36.409 3°26.141 0.8 4 12.1 102460 64
2004-05-14 09:07 51°36.415 3°26.245 1 3 12.1 102470 60
2004-05-14 09:08 51°36.42 3°26.344 1.7 350 12.2 102470 60
2004-05-14 09:09 51°36.424 3°26.441 1.7 345 12.3 102460 59
2004-05-14 09:10 51°36.431 3°26.539 1.6 6 12.2 102460 59
2004-05-14 09:11 51°36.438 3°26.639 1.6 3 12.1 102460 60
2004-05-14 09:12 51°36.444 3°26.738 1.5 22 12.1 102460 60
2004-05-14 09:13 51°36.452 3°26.834 1.6 359 12 102460 60
2004-05-14 09:14 51°36.462 3°26.932 1.9 339 12 102460 60
2004-05-14 09:15 51°36.474 3°27.03 1.7 336 11.9 102460 60
2004-05-14 09:16 51°36.486 3°27.13 1.5 344 11.9 102460 60
2004-05-14 09:17 51°36.494 3°27.224 1.4 326 11.9 102460 59
2004-05-14 09:18 51°36.501 3°27.314 1.3 321 12 102460 59
2004-05-14 09:19 51°36.507 3°27.403 1 321 12.1 102460 59
2004-05-14 09:20 51°36.514 3°27.488 1.2 349 12.1 102460 59
2004-05-14 09:21 51°36.52 3°27.573 0.7 335 12.1 102460 59
2004-05-14 09:22 51°36.527 3°27.659 0.6 333 12.2 102470 59
2004-05-14 09:23 51°36.535 3°27.743 1 320 12.3 102460 58
2004-05-14 09:24 51°36.542 3°27.827 0.5 283 12.3 102460 59
2004-05-14 09:25 51°36.549 3°27.916 1.6 325 12.4 102460 59
2004-05-14 09:26 51°36.556 3°28.002 1 340 12.5 102470 58
2004-05-14 09:27 51°36.565 3°28.082 1.2 344 12.5 102460 57
2004-05-14 09:28 51°36.575 3°28.177 1.7 343 12.4 102460 58
2004-05-14 09:29 51°36.585 3°28.279 1.5 339 12.5 102460 57
2004-05-14 09:30 51°36.599 3°28.398 1.3 335 12.3 102460 57
2004-05-14 09:31 51°36.614 3°28.509 0.8 347 12.2 102460 58
2004-05-14 09:32 51°36.631 3°28.614 0.4 318 12.2 102470 58
2004-05-14 09:33 51°36.646 3°28.698 0.4 318 12.2 102470 59
2004-05-14 09:34 51°36.663 3°28.787 0.3 318 12.4 102470 58
2004-05-14 09:35 51°36.678 3°28.88 0.4 318 12.6 102470 58
2004-05-14 09:36 51°36.695 3°28.971 0.5 300 12.9 102470 58
2004-05-14 09:37 51°36.714 3°29.062 0.9 283 12.8 102470 56
2004-05-14 09:38 51°36.733 3°29.153 1 273 12.6 102470 56
2004-05-14 09:39 51°36.751 3°29.244 1.5 293 12.4 102470 58
2004-05-14 09:40 51°36.767 3°29.335 1.1 304 12.4 102470 58
2004-05-14 09:41 51°36.779 3°29.424 0.9 299 12.5 102470 58
2004-05-14 09:42 51°36.789 3°29.52 0.9 286 12.6 102470 57
2004-05-14 09:43 51°36.797 3°29.611 1.4 272 12.5 102480 57
2004-05-14 09:44 51°36.805 3°29.707 1.1 272 12.1 102480 57
2004-05-14 09:45 51°36.813 3°29.799 0.6 273 11.8 102480 58
2004-05-14 09:46 51°36.823 3°29.891 1.8 273 11.8 102480 60
2004-05-14 09:47 51°36.831 3°29.981 1.1 268 11.6 102480 59
2004-05-14 09:48 51°36.839 3°30.069 1.1 269 11.4 102480 60
2004-05-14 09:49 51°36.849 3°30.164 0.7 275 11.4 102480 61
2004-05-14 09:50 51°36.859 3°30.253 0.7 275 11.5 102480 61
2004-05-14 09:51 51°36.867 3°30.344 0.7 276 11.7 102480 61
2004-05-14 09:52 51°36.874 3°30.437 0.9 276 11.8 102480 60
2004-05-14 09:53 51°36.88 3°30.528 0.7 274 11.8 102480 60
2004-05-14 09:54 51°36.884 3°30.614 0.5 257 11.8 102480 60
2004-05-14 09:55 51°36.89 3°30.714 0.6 257 11.9 102480 59
2004-05-14 09:56 51°36.896 3°30.803 1.3 272 11.9 102490 60
2004-05-14 09:57 51°36.902 3°30.893 1.2 266 11.7 102490 60
2004-05-14 09:58 51°36.907 3°30.984 1.7 280 11.5 102490 60
2004-05-14 09:59 51°36.913 3°31.077 1.1 283 11.5 102490 61
2004-05-14 10:00 51°36.917 3°31.169 0.9 286 11.6 102490 61
2004-05-14 10:01 51°36.915 3°31.26 1.3 271 11.7 102490 60
2004-05-14 10:02 51°36.911 3°31.352 1.3 269 11.6 102480 62
2004-05-14 10:03 51°36.904 3°31.444 1.3 269 11.5 102490 60
2004-05-14 10:04 51°36.898 3°31.536 1.4 274 11.5 102490 62
2004-05-14 10:05 51°36.892 3°31.625 0.8 287 11.5 102490 61
2004-05-14 10:06 51°36.885 3°31.716 1.1 287 11.6 102490 61
2004-05-14 10:07 51°36.873 3°31.8 1.4 240 11.8 102490 61
2004-05-14 10:08 51°36.858 3°31.882 1.6 223 11.7 102490 62
2004-05-14 10:09 51°36.84 3°31.976 1.1 234 11.7 102490 60
2004-05-14 10:10 51°36.827 3°32.072 1.1 247 11.5 102490 61
2004-05-14 10:11 51°36.822 3°32.155 0.9 250 11.2 102500 61
2004-05-14 10:12 51°36.82 3°32.236 1.3 243 11.1 102500 62
2004-05-14 10:13 51°36.814 3°32.301 1.3 205 11.1 102500 64
2004-05-14 10:14 51°36.804 3°32.355 1.2 182 11 102500 63
2004-05-14 10:15 51°36.794 3°32.4 1.9 162 11.1 102490 63
2004-05-14 10:16 51°36.782 3°32.441 1.5 150 11 102500 64
2004-05-14 10:17 51°36.77 3°32.473 1.8 130 10.9 102500 64
2004-05-14 10:18 51°36.759 3°32.499 1.8 121 10.9 102500 64
2004-05-14 10:19 51°36.75 3°32.522 1.7 117 11 102500 65
2004-05-14 10:20 51°36.743 3°32.54 1.9 113 11 102490 64
2004-05-14 10:21 51°36.737 3°32.557 2.1 98 11 102500 64
2004-05-14 10:22 51°36.732 3°32.572 2 97 11 102500 63
2004-05-14 10:23 51°36.729 3°32.585 1.5 90 11 102500 63
2004-05-14 10:24 51°36.727 3°32.599 1.5 73 10.9 102500 65
2004-05-14 10:25 51°36.726 3°32.611 1.8 52 10.8 102500 65
2004-05-14 10:26 51°36.726 3°32.624 2.1 58 10.7 102500 66
2004-05-14 10:27 51°36.726 3°32.636 1.7 54 10.6 102500 65
2004-05-14 10:28 51°36.728 3°32.648 2.4 33 10.6 102500 67
2004-05-14 10:29 51°36.73 3°32.661 2.2 27 10.6 102500 64
2004-05-14 10:30 51°36.732 3°32.674 2 41 10.5 102500 65
2004-05-14 10:31 51°36.733 3°32.686 2.1 33 10.4 102500 65
2004-05-14 10:32 51°36.736 3°32.668 3.3 22 10.4 102500 67
2004-05-14 10:33 51°36.729 3°32.489 8 17 10.5 102490 65
2004-05-14 10:34 51°36.712 3°32.156 8.9 15 10.6 102490 66
2004-05-14 10:35 51°36.697 3°31.811 9.1 18 10.6 102490 64
2004-05-14 10:36 51°36.685 3°31.464 8.6 11 10.7 102490 64
2004-05-14 10:37 51°36.673 3°31.13 9.1 15 10.7 102500 65
2004-05-14 10:38 51°36.66 3°30.775 8.9 13 10.7 102490 64
2004-05-14 10:39 51°36.65 3°30.429 8.7 13 10.7 102490 64
2004-05-14 10:40 51°36.628 3°30.086 8.6 10 10.7 102490 65
2004-05-14 10:41 51°36.598 3°29.745 8.5 13 10.7 102490 65
2004-05-14 10:42 51°36.568 3°29.405 9.5 15 10.6 102490 65
2004-05-14 10:43 51°36.539 3°29.064 9.7 13 10.7 102490 65
2004-05-14 10:44 51°36.509 3°28.721 9.1 12 10.7 102490 64
2004-05-14 10:45 51°36.48 3°28.38 9.2 15 10.7 102490 65
2004-05-14 10:46 51°36.452 3°28.04 8.7 10 10.7 102500 65
2004-05-14 10:47 51°36.424 3°27.698 8.8 15 10.6 102490 65
2004-05-14 10:48 51°36.397 3°27.356 9.4 17 10.7 102490 66
2004-05-14 10:49 51°36.371 3°27.014 9 7 10.6 102490 65
2004-05-14 10:50 51°36.346 3°26.671 10 13 10.6 102490 65
2004-05-14 10:51 51°36.306 3°26.333 9.5 15 10.6 102500 65
2004-05-14 10:52 51°36.264 3°25.996 9.2 11 10.6 102490 65
2004-05-14 10:53 51°36.222 3°25.658 9.1 5 10.6 102490 65
2004-05-14 10:54 51°36.181 3°25.319 9.8 7 10.6 102500 67
2004-05-14 10:55 51°36.142 3°24.98 9.8 17 10.6 102500 66
2004-05-14 10:56 51°36.103 3°24.646 9.6 8 10.6 102490 65
2004-05-14 10:57 51°36.064 3°24.3 9.5 11 10.6 102490 66
2004-05-14 10:58 51°36.024 3°23.959 9.2 6 10.6 102490 66
2004-05-14 10:59 51°35.984 3°23.617 9.6 8 10.6 102490 65
2004-05-14 11:00 51°35.944 3°23.275 9.7 6 10.6 102490 66
2004-05-14 11:01 51°35.903 3°22.932 9 5 10.6 102490 65
2004-05-14 11:02 51°35.862 3°22.588 10.4 8 10.6 102490 66
2004-05-14 11:03 51°35.822 3°22.247 9.8 3 10.6 102490 65
2004-05-14 11:04 51°35.783 3°21.905 9.2 6 10.6 102490 65
2004-05-14 11:05 51°35.744 3°21.563 9.7 7 10.6 102480 66
2004-05-14 11:06 51°35.706 3°21.223 8.7 10 10.6 102480 66
2004-05-14 11:07 51°35.668 3°20.882 10.1 5 10.6 102490 65
2004-05-14 11:08 51°35.632 3°20.544 9.5 9 10.6 102480 66
2004-05-14 11:09 51°35.586 3°20.208 9.7 6 10.6 102490 66
2004-05-14 11:10 51°35.529 3°19.875 9.5   10.6 102490 66
2004-05-14 11:11 51°35.474 3°19.541 9.1 14 10.6 102490 65
2004-05-14 11:12 51°35.415 3°19.206 9.8 6 10.7 102500 65
2004-05-14 11:13 51°35.358 3°18.872 9.7 10 10.7 102490 66
2004-05-14 11:14 51°35.301 3°18.534 9 7 10.7 102490 66
2004-05-14 11:15 51°35.254 3°18.195 9.1 15 10.7 102490 64
2004-05-14 11:16 51°35.217 3°17.853 9.5 6 10.7 102500 65
2004-05-14 11:17 51°35.181 3°17.513 9.6 9 10.7 102500 65
2004-05-14 11:18 51°35.144 3°17.175 9.7 12 10.8 102500 64
2004-05-14 11:19 51°35.108 3°16.84 9.5   10.8 102500 65
2004-05-14 11:20 51°35.106 3°16.495 9.6 11 10.8 102500 64
2004-05-14 11:21 51°35.111 3°16.15 9.5 8 10.7 102500 65
2004-05-14 11:22 51°35.116 3°15.806 10.2 9 10.8 102500 65
2004-05-14 11:23 51°35.112 3°15.463 9.5 18 10.8 102510 65
2004-05-14 11:24 51°35.094 3°15.124 8.7 9 10.8 102500 64
2004-05-14 11:25 51°35.078 3°14.783 10.2 9 10.8 102500 64
2004-05-14 11:26 51°35.062 3°14.443 10.6 13 10.8 102500 64
2004-05-14 11:27 51°35.046 3°14.103 9.9 9 10.7 102500 63
2004-05-14 11:28 51°35.03 3°13.763 8.8 16 10.7 102500 63
2004-05-14 11:29 51°35.015 3°13.422 10 13 10.8 102500 64
2004-05-14 11:30 51°34.998 3°13.076 10.8 14 10.8 102510 64
2004-05-14 11:31 51°34.989 3°12.729 11.1 18 10.8 102510 64
2004-05-14 11:32 51°34.997 3°12.381 10.3 16 10.8 102500 64
2004-05-14 11:33 51°35.005 3°12.033 10 16 10.8 102500 64
2004-05-14 11:34 51°35.013 3°11.688 10.3 8 10.8 102510 64
2004-05-14 11:35 51°35.02 3°11.346 10.2 18 10.8 102510 65
2004-05-14 11:36 51°35.028 3°11.004 10.3 14 10.7 102510 66
2004-05-14 11:37 51°35.037 3°10.662 9.4 13 10.7 102510 66
2004-05-14 11:38 51°35.045 3°10.319 9.9 11 10.7 102510 66
2004-05-14 11:39 51°35.054 3°9.975 9.7 9 10.7 102500 66
2004-05-14 11:40 51°35.062 3°9.63 9.2 11 10.7 102500 66
2004-05-14 11:41 51°35.067 3°9.281 9.7 13 10.6 102500 67
2004-05-14 11:42 51°35.072 3°8.929 10 7 10.6 102500 66
2004-05-14 11:43 51°35.077 3°8.578 10.2 11 10.6 102500 68
2004-05-14 11:44 51°35.081 3°8.227 9.6 8 10.6 102500 67
2004-05-14 11:45 51°35.086 3°7.876 9.1 9 10.6 102500 67
2004-05-14 11:46 51°35.091 3°7.525 9.2 9 10.6 102500 66
2004-05-14 11:47 51°35.095 3°7.171 9 3 10.6 102490 67
2004-05-14 11:48 51°35.102 3°6.815 8.8 3 10.6 102500 67
2004-05-14 11:49 51°35.109 3°6.457 9.6 4 10.6 102490 67
2004-05-14 11:50 51°35.114 3°6.099 8.2 359 10.6 102490 67
2004-05-14 11:51 51°35.12 3°5.739 8.7 4 10.6 102490 66
2004-05-14 11:52 51°35.117 3°5.382 9.1   10.6 102480 67
2004-05-14 11:53 51°35.108 3°5.024 9.7 1 10.7 102480 66
2004-05-14 11:54 51°35.1 3°4.668 9.1 355 10.7 102480 65
2004-05-14 11:55 51°35.093 3°4.314 9.1 360 10.7 102480 65
2004-05-14 11:56 51°35.079 3°3.961 8.3 357 10.7 102480 65
2004-05-14 11:57 51°35.061 3°3.611 8.1 356 10.7 102490 65
2004-05-14 11:58 51°35.044 3°3.262 8.4 2 10.7 102480 63
2004-05-14 11:59 51°35.031 3°2.917 8.9 357 10.7 102480 65
2004-05-14 12:00 51°34.993 3°2.574 8.6 357 10.8 102480 64
2004-05-14 12:01 51°34.96 3°2.229 8.2 358 10.8 102480 65
2004-05-14 12:02 51°34.928 3°1.88 8.5 358 10.8 102480 66
2004-05-14 12:03 51°34.894 3°1.53 8.5 2 10.8 102470 65
2004-05-14 12:04 51°34.838 3°1.231 6.3 1 10.8 102480 64
2004-05-14 12:05 51°34.787 3°1.142 3.4 24 10.8 102490 64
2004-05-14 12:06 51°34.756 3°1.127 2.9 32 10.8 102490 65
2004-05-14 12:07 51°34.724 3°1.12 3.4 22 10.8 102490 65
2004-05-14 12:08 51°34.706 3°1.056 3.7 356 10.9 102480 64
2004-05-14 12:09 51°34.699 3°0.969 3.5 14 11 102490 63
2004-05-14 12:10 51°34.688 3°0.886 3.1 357 11.1 102490 64
2004-05-14 12:11 51°34.678 3°0.796 3.6 10 11.2 102490 64
2004-05-14 12:12 51°34.667 3°0.714 3.6 6 11.2 102500 63
2004-05-14 12:13 51°34.655 3°0.635 3.5 13 11.2 102490 62
2004-05-14 12:14 51°34.642 3°0.559 3.9 8 11.3 102500 63
2004-05-14 12:15 51°34.625 3°0.49 3.5 356 11.3 102490 62
2004-05-14 12:16 51°34.604 3°0.428 4 7 11.3 102480 63
2004-05-14 12:17 51°34.582 3°0.363 3.7 5 11.3 102490 63
2004-05-14 12:18 51°34.562 3°0.299 3.4 6 11.3 102480 63
2004-05-14 12:19 51°34.541 3°0.234 3.7 3 11.3 102490 63
2004-05-14 12:20 51°34.521 3°0.169 3.9 359 11.3 102490 62
2004-05-14 12:21 51°34.499 3°0.104 4 4 11.2 102490 62
2004-05-14 12:22 51°34.474 3°0.045 3.3 358 11.2 102490 62
2004-05-14 12:23 51°34.45 2°59.985 3.7 9 11.2 102490 61
2004-05-14 12:24 51°34.426 2°59.923 3.6 12 11.2 102490 61
2004-05-14 12:25 51°34.402 2°59.863 3.7 10 11.3 102490 62
2004-05-14 12:26 51°34.378 2°59.801 3.8 10 11.3 102490 63
2004-05-14 12:27 51°34.353 2°59.741 4 17 11.3 102490 62
2004-05-14 12:28 51°34.329 2°59.68 3.4 5 11.4 102490 62
2004-05-14 12:29 51°34.305 2°59.619 3.8 18 11.4 102490 62
2004-05-14 12:30 51°34.28 2°59.556 4 7 11.4 102480 61
2004-05-14 12:31 51°34.255 2°59.494 3.6 3 11.4 102490 61
2004-05-14 12:32 51°34.23 2°59.43 3.9 6 11.4 102490 61
2004-05-14 12:33 51°34.205 2°59.369 3.7 8 11.5 102490 60
2004-05-14 12:34 51°34.18 2°59.307 3.7 12 11.5 102500 61
2004-05-14 12:35 51°34.154 2°59.243 3.4 3 11.5 102490 61
2004-05-14 12:36 51°34.128 2°59.181 3.7 10 11.5 102490 61
2004-05-14 12:37 51°34.102 2°59.115 4.1 8 11.5 102490 62
2004-05-14 12:38 51°34.075 2°59.052 3.9 12 11.5 102490 62
2004-05-14 12:39 51°34.048 2°58.989 3.8 9 11.6 102490 63
2004-05-14 12:40 51°34.027 2°58.92 3.8 10 11.5 102490 63
2004-05-14 12:41 51°34.01 2°58.843 3.5 1 11.6 102490 63
2004-05-14 12:42 51°33.994 2°58.761 3.6 5 11.6 102490 62
2004-05-14 12:44 51°33.978 2°58.679 3.4 8 11.6 102490 63
2004-05-14 12:45 51°33.967 2°58.63 2.9 10 11.6 102490 63
2004-05-14 12:46 51°33.951 2°58.591 3.8 20 11.6 102490 63
2004-05-14 12:47 51°33.86 2°58.569 6.2 20 11.6 102480 64
2004-05-14 12:48 51°33.71 2°58.498 7.4 14 11.6 102480 65
2004-05-14 12:49 51°33.55 2°58.41 8.2 10 11.5 102480 65
2004-05-14 12:50 51°33.391 2°58.325 8.3 12 11.5 102480 65
2004-05-14 12:51 51°33.272 2°58.244 4.9 16 11.5 102480 65
2004-05-14 12:52 51°33.235 2°58.158 3.9 340 11.5 102490 65
2004-05-14 12:53 51°33.23 2°58.086 3.2 334 11.6 102480 66
2004-05-14 12:54 51°33.233 2°58.017 4.8 354 11.8 102480 66
2004-05-14 12:55 51°33.151 2°57.921 8.6 20 11.7 102480 65
2004-05-14 12:56 51°32.956 2°57.808 9.7 11 11.6 102470 66
2004-05-14 12:57 51°32.756 2°57.689 9.5 12 11.5 102470 67
2004-05-14 12:58 51°32.555 2°57.569 9.2 9 11.5 102480 67
2004-05-14 12:59 51°32.355 2°57.446 9.4 9 11.5 102480 67
2004-05-14 13:00 51°32.155 2°57.321 9.6 16 11.4 102470 68
2004-05-14 13:01 51°31.955 2°57.194 9.4 15 11.5 102470 68
2004-05-14 13:02 51°31.753 2°57.07 9.7 16 11.5 102470 67
2004-05-14 13:03 51°31.548 2°56.95 9.7 16 11.5 102470 68
2004-05-14 13:04 51°31.34 2°56.835 9.8 13 11.5 102470 67
2004-05-14 13:05 51°31.133 2°56.72 9.1 10 11.4 102480 68
2004-05-14 13:06 51°30.926 2°56.603 9.1 10 11.4 102470 69
2004-05-14 13:07 51°30.718 2°56.484 10 14 11.4 102470 67
2004-05-14 13:08 51°30.508 2°56.361 9.4 11 11.4 102470 68
2004-05-14 13:09 51°30.297 2°56.238 9.9 7 11.4 102470 67
2004-05-14 13:10 51°30.087 2°56.108 10.2 13 11.4 102470 67
2004-05-14 13:11 51°29.876 2°55.981 10.5 11 11.4 102470 68
2004-05-14 13:12 51°29.665 2°55.86 10 13 11.5 102470 68
2004-05-14 13:13 51°29.454 2°55.737 9.4 9 11.5 102470 68
2004-05-14 13:14 51°29.244 2°55.611 9 11 11.4 102470 68
2004-05-14 13:15 51°29.032 2°55.482 9.7 12 11.4 102470 69
2004-05-14 13:16 51°28.822 2°55.354 10.3 12 11.4 102470 69
2004-05-14 13:17 51°28.617 2°55.226 9.4 15 11.5 102480 69
2004-05-14 13:18 51°28.405 2°55.093 9 8 11.5 102470 69
2004-05-14 13:19 51°28.196 2°54.962 9.1 13 11.5 102470 69
2004-05-14 13:20 51°27.985 2°54.83 9.3 15 11.5 102470 70
2004-05-14 13:21 51°27.775 2°54.7 9.2 13 11.6 102460 70
2004-05-14 13:22 51°27.563 2°54.567 9.8 10 11.6 102480 70
2004-05-14 13:23 51°27.352 2°54.433 10.3 12 11.5 102470 70
2004-05-14 13:24 51°27.142 2°54.299 9.5 8 11.5 102470 70
2004-05-14 13:25 51°26.931 2°54.166 10.1 13 11.6 102470 71
2004-05-14 13:26 51°26.722 2°54.038 9.1 14 11.6 102470 71
2004-05-14 13:27 51°26.513 2°53.907 9 15 11.6 102470 71
2004-05-14 13:28 51°26.296 2°53.818 9.7 16 11.6 102480 71
2004-05-14 13:29 51°26.074 2°53.784 8.7 16 11.7 102480 71
2004-05-14 13:30 51°25.843 2°53.75 9.2 16 11.7 102480 71
2004-05-14 13:31 51°25.615 2°53.727 8.8 14 11.7 102480 70
2004-05-14 13:32 51°25.386 2°53.7 8.7 14 11.7 102470 70
2004-05-14 13:33 51°25.156 2°53.674 9 18 11.7 102480 71
2004-05-14 13:34 51°24.928 2°53.645 9.4 20 11.8 102480 71
2004-05-14 13:35 51°24.7 2°53.625 9.3 20 11.8 102480 70
2004-05-14 13:36 51°24.472 2°53.612 8.6 22 11.9 102480 70
2004-05-14 13:37 51°24.251 2°53.537 9 16 11.9 102470 70
2004-05-14 13:38 51°24.034 2°53.408 9.4 19 11.9 102470 70
2004-05-14 13:39 51°23.816 2°53.285 9.3 17 11.9 102470 70
2004-05-14 13:40 51°23.595 2°53.168 9.6 18 12 102470 70
2004-05-14 13:41 51°23.376 2°53.051 9.2 13 12 102470 69
2004-05-14 13:42 51°23.156 2°52.938 8.7 17 12 102470 70
2004-05-14 13:43 51°22.938 2°52.824 9.1 20 11.9 102470 70
2004-05-14 13:44 51°22.724 2°52.713 9.9 20 12 102470 70
2004-05-14 13:45 51°22.503 2°52.597 9.6 19 12 102470 70
2004-05-14 13:46 51°22.284 2°52.489 9.2 21 12.1 102480 69
2004-05-14 13:47 51°22.06 2°52.421 8.9 23 12.1 102480 70
2004-05-14 13:48 51°21.828 2°52.433 9 23 12.2 102480 70
2004-05-14 13:49 51°21.597 2°52.446 8.2 24 12.1 102480 70
2004-05-14 13:50 51°21.365 2°52.454 8.6 27 12.1 102480 70
2004-05-14 13:51 51°21.132 2°52.458 8.7 30 12.1 102480 71
2004-05-14 13:52 51°20.9 2°52.461 7.9 26 12.1 102480 71
2004-05-14 13:53 51°20.668 2°52.461 8.3 22 12.1 102480 72
2004-05-14 13:54 51°20.439 2°52.463 8 22 12.1 102480 71
2004-05-14 13:55 51°20.211 2°52.464 8.3 26 12.1 102480 71
2004-05-14 13:56 51°19.982 2°52.461 8.3 23 12.1 102480 72
2004-05-14 13:57 51°19.75 2°52.456 8.5 28 12.1 102480 72
2004-05-14 13:58 51°19.517 2°52.454 8.4 27 12 102480 72
2004-05-14 13:59 51°19.282 2°52.448 7.7 30 12.1 102480 72
2004-05-14 14:00 51°19.047 2°52.443 8.3 29 12.1 102480 73
2004-05-14 14:01 51°18.82 2°52.442 8.2 26 12 102490 73
2004-05-14 14:02 51°18.579 2°52.443 7.7 29 12 102490 74
2004-05-14 14:03 51°18.348 2°52.441 8.1 24 12 102490 73
2004-05-14 14:04 51°18.115 2°52.435 8 30 12 102490 74
2004-05-14 14:05 51°17.883 2°52.437 7.5 23 11.9 102490 73
2004-05-14 14:06 51°17.65 2°52.437 7.9 28 12 102490 74
2004-05-14 14:07 51°17.417 2°52.436 8.4 27 12 102480 75
2004-05-14 14:08 51°17.189 2°52.479 5.9 29 12 102490 73
2004-05-14 14:09 51°16.968 2°52.573 6.6 30 12 102490 74
2004-05-14 14:10 51°16.747 2°52.663 6.2 29 12 102490 74
2004-05-14 14:11 51°16.519 2°52.749 6.5 32 12 102490 74
2004-05-14 14:12 51°16.292 2°52.834 6.5 35 12 102490 73
2004-05-14 14:13 51°16.074 2°52.95 5.6 26 11.9 102490 75
2004-05-14 14:14 51°15.861 2°53.086 5.3 31 11.9 102490 76
2004-05-14 14:15 51°15.648 2°53.225 5.5 28 12 102500 75
2004-05-14 14:16 51°15.449 2°53.401 4.9 32 12.1 102490 75
2004-05-14 14:17 51°15.257 2°53.593 5.5 26 12.1 102500 75
2004-05-14 14:18 51°15.076 2°53.806 4.7 17 12.1 102500 74
2004-05-14 14:19 51°14.895 2°54.02 4.6 26 12.2 102500 74
2004-05-14 14:20 51°14.73 2°54.261 4.3 13 12.2 102500 72
2004-05-14 14:21 51°14.582 2°54.528 4.7 16 12.3 102500 73
2004-05-14 14:22 51°14.452 2°54.813 3.7 18 12.3 102500 72